Volver al catálogo

SWISSCUBE

ActivoRadioaficionadoSSO
NORAD 35932·PAYLOAD·🇨🇭 Switzerland

Lanzado Sep 23, 2009 desde Satish Dhawan Space Centre

Loading…

Próximos Pases (próximas 24 horas)

TLE

ActualizadoSource: Space-Track

Época: Sep 14, 2026, 04:12 UTC

1 35932U 09051B   26257.17516900  .00000727  00000-0  15278-3 0  9990
2 35932  98.3945 166.5801 0005718 304.2301  55.8358 14.62622865902167

Sigue SWISSCUBE en tiempo real con AllMySat

Download on the App Store